{"data":{"norad_id":67089,"epoch":"2026-05-25T03:19:29.697888Z","epoch_age_seconds":59001,"freshness":"FRESH","line1":"1 67089U 25298Q   26145.13853817  .00002711  00000+0  23486-3 0  9996","line2":"2 67089  70.0012 181.9026 0003526 268.3259  91.7496 14.98337412 24666","mean_motion":14.98337412,"eccentricity":0.0003526,"inclination_deg":70.0012,"raan_deg":181.9026,"arg_perigee_deg":268.3259,"mean_anomaly_deg":91.7496,"bstar":0.00023486,"rev_number":2466,"period_min":96.106523702019,"perigee_km":569.58234010889,"apogee_km":574.48359997176,"semimajor_km":6950.1699700403,"source":"CELESTRAK","updated_at":"2026-05-25T13:38:21.469298Z"}}